Weather in Tsepel

Russia / Perm Krai     60°07′39″N   57°20′50″E
temp.,
°C
wind,
m/s
gust,
m/s
humid.,
%
clouds,
%
prec.,
mm/h
press.,
hPa
HPBL,
m
3 march, wed
wed323:00−10s41094100 2.1 992436
02:00−10sse4995100 0.3 992318
05:00−9s3796100 1.8 992312
08:00−7wsw2597100 1.1 991193
11:00−4w2595100 1.9 992461
14:00−3w3693100 0.4 993626
17:00−4w3693100 0.6 994648
20:00−6wsw2797100 0.3 994266
4 march, thu
thu423:00−7sw2796100 0.6 994337
02:00−8sw2697100 0.8 993272
05:00−8sw2697100 1.4 993243
08:00−9ssw2596100 0.8 992232
11:00−9ssw2595100 1.4 992353
14:00−7ssw3593100 0.5 991545
17:00−6ssw3594100 0.8 991512
20:00−9s2397100 0.3 99290
5 march, fri
fri523:00−9sse1297100 0.8 99248
02:00−10se1197100 0.3 99221
05:00−10e1197100 0.6 99321
08:00−11n119799 0.4 99421
11:00−9nw239599 0.8 995250
14:00−8wnw2493100 0.1 997455
17:00−8wnw3492100 0.2 998498
20:00−12nw2597100 0.1 1000104
6 march, sat
sat623:00−14nw229790 0.1 100234
02:00−18nw229972 0.0 100321
05:00−19wnw1110076 0.1 100520
08:00−19w119997 0.1 100621
11:00−15wsw239398 0.3 1007325
14:00−12wsw2490100 0.1 1007690
17:00−12sw2490100 0.3 1007648
20:00−14sse2697100 0.1 1007158
7 march, sun
sun723:00−13ssw3896100 0.6 1007509
02:00−15wsw1298100 0.3 100624
05:00−18wnw1298100 0.4 100627
08:00−23w1110090 0.0 100620
11:00−18wsw119366 0.1 1006222
14:00−14sw228694 0.0 1006587
17:00−14sw128598 0.1 1005605
20:00−19ese119594 0.0 100620